CAPE
nan nan nan nan nan nan nan nan nan nan nan nan nan nan nan nan nan nan nan nan nan nan nan nan nan nan nan nan nan nan nan nan nan nan nan nan nan nan nan nan nan nan nan nan nan 0 0 1 1 2 9 20 31 31 45 63 63 66 72 69 69 60 58 62 62 68 88 122 140 140 111 58 8 8 nan nan nan nan nan nan nan 1 14 36 36 94
nan nan nan nan nan nan nan nan nan nan nan nan nan nan nan nan nan nan nan nan nan nan nan nan nan nan nan nan nan nan nan nan nan nan nan nan nan nan nan nan nan nan 0 1 1 2 3 3 3 7 14 19 33 33 49 61 61 68 84 91 91 93 85 79 79 72 70 89 117 117 107 52 10 10 nan nan nan nan nan nan nan 0 10 34 34 71
nan nan nan nan nan nan nan nan nan nan nan nan nan nan nan nan nan nan nan nan nan nan nan nan nan nan nan nan nan nan nan nan nan nan nan nan nan nan nan nan nan 0 1 3 3 5 7 9 9 13 19 29 40 40 51 60 60 67 82 83 83 87 88 88 88 81 72 78 87 87 62 28 5 5 nan nan nan nan nan nan nan nan 8 31 31 66
nan nan nan nan nan nan nan nan nan nan nan nan nan nan nan nan nan nan nan nan nan nan nan nan nan nan nan nan nan nan nan nan nan nan nan nan nan nan nan nan nan 0 1 4 4 6 9 13 13 19 30 36 45 45 51 61 61 69 70 64 64 62 65 76 76 75 80 65 53 53 33 13 7 7 4 nan nan nan nan nan nan nan 3 30 30 73
nan nan nan nan nan nan nan nan nan nan nan nan nan nan nan nan nan nan nan nan nan nan nan nan nan nan nan nan nan nan nan 0 nan nan nan nan nan nan nan nan nan nan 1 2 2 5 8 13 13 22 31 36 44 44 48 55 55 57 56 51 51 45 34 40 40 47 45 44 45 45 33 23 23 23 12 0 nan nan nan nan nan nan 1 23 23 65
nan nan nan nan nan nan nan nan nan nan nan nan nan nan nan nan nan nan nan nan nan nan nan nan nan nan nan nan nan nan 0 0 0 0 nan nan nan nan nan nan nan nan 0 1 1 2 5 9 9 16 20 25 31 31 36 40 40 46 44 45 45 41 34 31 31 24 21 24 27 27 36 37 33 33 19 4 1 1 nan nan nan nan nan 15 15 53
nan nan nan nan nan nan nan nan nan nan nan nan nan nan nan nan nan nan nan nan nan nan nan nan nan nan nan nan nan nan 0 0 nan nan nan nan nan nan 0 0 0 0 0 0 0 1 3 5 5 7 9 11 16 16 22 24 24 29 33 35 35 36 35 30 30 24 15 11 15 15 28 33 30 30 24 11 5 5 3 0 0 nan nan 7 7 36
nan nan nan nan nan nan nan nan nan nan nan nan nan nan nan nan nan nan nan nan nan nan nan nan nan nan nan nan nan nan nan nan nan nan nan nan nan nan 2 4 4 3 2 1 1 1 1 1 1 1 1 2 2 2 2 2 2 2 7 15 15 23 25 25 25 24 21 15 10 10 8 13 19 19 20 19 17 17 20 19 19 13 8 8 8 20
nan nan nan nan nan nan nan nan nan nan nan nan nan nan nan nan nan nan nan nan nan nan nan nan nan nan nan nan nan nan nan nan nan nan nan nan nan nan nan 3 3 3 4 3 3 1 0 0 0 0 1 3 5 5 6 5 5 4 5 8 8 16 21 20 20 24 22 20 15 15 11 7 8 8 15 22 20 20 22 23 23 22 17 14 14 21
nan nan nan nan nan nan nan nan nan nan nan nan nan nan nan nan nan nan nan nan nan nan nan nan nan nan nan nan nan nan nan nan 0 0 3 nan 5 5 1 0 0 nan 4 3 3 2 1 0 0 0 1 2 4 4 5 5 5 5 6 7 7 12 21 23 23 26 24 24 19 19 15 9 5 5 7 17 23 23 22 20 20 23 22 18 18 21
nan nan nan nan nan nan nan nan nan nan nan nan nan nan nan nan nan nan nan nan nan nan nan nan nan nan nan nan nan nan nan nan nan nan nan nan 2 2 3 1 1 2 3 2 2 1 0 nan nan 0 1 2 3 3 3 3 3 4 6 9 9 14 23 24 24 27 26 24 21 21 17 12 8 8 5 8 19 19 26 24 24 18 19 20 20 22
nan nan 0 nan nan nan nan nan nan nan nan nan nan nan nan nan nan nan nan nan nan nan nan nan nan nan nan nan nan nan nan nan nan nan nan nan nan nan nan nan nan nan nan nan nan nan nan nan nan 0 0 1 2 2 1 1 1 4 6 11 11 15 19 22 22 29 31 30 27 27 20 15 9 9 5 5 10 10 22 27 27 25 18 19 19 20
1 1 1 1 1 nan nan nan nan nan nan nan nan nan nan nan nan nan nan nan nan nan nan nan nan nan nan nan nan nan nan nan nan nan nan nan nan nan nan nan nan nan nan nan nan nan nan nan nan 0 1 0 1 1 1 1 1 4 9 14 14 17 20 23 23 26 31 36 27 27 23 16 11 11 6 4 5 5 14 25 25 29 25 21 21 22
4 5 4 0 0 0 nan nan nan nan nan nan nan nan nan nan nan nan nan nan nan nan nan nan nan nan nan nan nan nan nan nan nan nan nan nan nan nan nan nan nan nan nan nan nan nan nan nan nan nan nan nan nan nan 0 2 2 7 12 18 18 24 23 20 20 25 32 40 32 32 24 17 10 10 6 5 5 5 9 15 15 25 29 25 25 24
8 7 3 0 0 nan nan nan nan nan nan nan nan nan nan nan nan nan nan nan nan nan nan nan nan nan nan nan nan nan nan nan nan nan nan nan nan nan nan nan nan nan nan nan nan nan nan nan nan nan nan nan nan nan nan 3 3 14 15 26 26 28 30 27 27 23 31 36 35 35 26 16 10 10 4 4 6 6 8 10 10 17 25 29 29 30
8 3 0 0 0 nan nan nan nan nan nan nan nan nan nan nan nan nan nan nan nan nan 0 nan nan nan nan nan nan nan nan nan nan nan nan nan nan nan nan nan nan nan nan nan nan nan nan nan nan nan nan nan 3 3 7 12 12 25 26 30 30 35 32 28 28 26 25 30 29 29 23 15 9 9 3 3 6 6 8 7 7 7 15 25 25 31
0 nan 0 nan nan nan nan nan nan nan nan nan nan nan nan nan nan nan nan 0 0 nan 1 0 0 0 0 nan nan nan nan nan nan nan nan nan nan nan nan nan nan nan nan nan nan nan nan nan nan nan nan nan 9 9 15 31 31 39 43 34 34 38 39 38 38 35 26 23 19 19 16 12 7 7 3 2 5 5 9 7 7 1 2 12 12 27
nan nan nan nan nan nan nan nan nan nan nan 0 nan nan 1 2 3 3 2 2 2 2 4 3 3 4 2 1 nan nan nan nan nan nan 0 0 nan nan nan nan nan nan nan nan nan nan nan nan nan nan nan 10 30 30 38 52 52 61 53 47 47 48 51 51 51 45 37 25 15 15 10 7 5 5 2 2 5 5 12 7 7 nan nan 3 3 22
nan nan nan nan nan nan nan nan nan nan 0 0 1 1 4 5 7 7 5 4 4 5 5 7 7 8 6 3 nan nan nan nan nan nan 2 2 nan nan nan nan nan nan nan nan nan nan nan nan nan nan 1 23 47 47 64 78 78 75 71 69 69 70 68 73 73 76 59 41 26 26 12 6 3 3 1 1 5 5 12 7 7 0 nan 1 1 20
nan nan nan nan nan nan nan nan 0 0 1 2 5 5 5 7 8 8 7 8 8 11 14 14 14 13 10 4 nan nan nan nan nan nan 4 8 nan nan nan nan nan nan nan nan nan nan nan nan nan nan nan 15 60 60 82 98 98 102 97 93 93 92 105 115 115 111 102 81 63 63 30 12 5 5 2 1 4 4 8 8 8 1 nan nan nan 12
nan nan nan nan nan nan nan nan nan nan 1 3 4 4 7 8 11 11 13 16 16 18 18 18 18 18 13 3 nan nan nan nan 3 3 11 12 0 0 nan nan nan nan nan nan nan nan nan nan nan nan nan 14 70 70 105 123 123 126 121 116 116 124 145 152 152 150 151 132 106 106 72 32 14 14 7 4 5 5 10 8 8 1 nan nan nan 5
nan nan nan nan nan nan 0 nan 1 1 4 7 7 7 13 14 19 19 20 19 19 20 22 24 24 19 12 5 nan nan nan nan 10 10 20 15 0 0 nan nan nan nan nan nan nan nan nan nan nan nan nan 39 96 96 136 145 145 141 144 148 148 164 175 176 176 170 168 151 131 131 111 62 29 29 17 8 5 5 8 6 6 1 nan nan nan 0
nan nan nan nan nan nan nan 0 3 3 19 18 24 24 27 28 25 25 26 23 23 24 27 32 32 28 12 nan nan nan nan 2 14 14 16 10 nan nan nan nan nan nan nan nan nan nan nan nan nan nan nan 61 100 100 143 155 155 162 179 194 194 206 211 182 182 164 147 129 125 125 119 89 50 50 30 16 10 10 7 5 5 1 nan nan nan nan
nan nan nan nan nan 0 1 4 7 7 16 24 30 30 24 20 22 22 30 34 34 38 42 42 42 19 nan nan nan nan nan nan 0 0 4 5 0 0 nan nan nan nan nan nan nan nan nan nan nan nan nan 33 113 113 157 183 183 206 214 239 239 248 233 197 197 150 127 110 99 99 106 111 80 80 44 25 13 13 9 5 5 0 nan nan nan nan
nan 0 5 6 6 9 8 9 14 14 8 1 0 0 1 12 34 34 40 49 49 50 42 28 28 10 0 6 2 2 nan nan nan nan nan 1 nan nan nan nan nan nan 0 nan nan nan nan nan nan nan nan 2 92 92 161 212 212 238 250 287 287 281 256 192 192 137 122 106 92 92 82 99 90 90 70 44 21 21 11 6 6 0 nan nan nan nan
20 37 35 31 31 45 49 42 38 38 23 4 2 2 5 22 35 35 39 40 40 37 22 11 11 6 1 0 2 2 nan nan nan nan nan 1 nan nan nan nan nan 1 2 nan nan nan nan nan nan nan nan nan 78 78 162 219 219 260 285 317 317 297 238 169 169 130 107 95 73 73 51 54 75 75 88 72 38 38 18 7 7 nan nan 4 4 6
68 67 61 49 49 43 39 36 40 40 48 32 11 11 11 21 27 27 31 27 27 26 25 18 18 11 5 5 4 4 nan nan nan nan nan 1 6 6 nan nan nan 0 1 nan nan nan 6 7 7 1 nan nan 2 2 139 213 213 257 309 316 316 270 201 127 127 104 100 84 57 57 30 15 45 45 68 73 54 54 26 10 10 1 1 16 16 20
49 31 22 21 21 23 23 24 27 27 28 34 45 45 35 23 25 25 22 19 19 25 31 26 26 23 19 15 11 11 7 6 nan nan nan 1 8 8 0 nan nan nan 3 3 3 6 25 8 8 nan nan nan nan nan 23 167 167 250 277 247 247 189 136 109 109 100 92 75 52 52 23 8 25 25 45 68 65 65 41 15 15 0 6 29 29 43
4 2 3 6 6 10 13 14 14 14 15 23 36 36 35 18 22 22 20 22 22 28 34 38 38 33 34 34 19 19 13 16 nan nan nan nan 1 1 nan nan nan 1 12 16 16 5 4 0 0 nan nan nan nan nan 0 102 102 174 176 135 135 99 85 80 80 74 81 62 45 45 22 8 13 13 34 57 74 74 59 34 34 8 8 29 29 33
nan nan nan 0 0 2 2 nan 2 2 13 23 34 34 33 14 16 16 19 29 29 38 34 34 34 38 40 36 32 32 7 nan nan nan nan nan 3 3 1 5 5 13 16 13 13 3 nan nan nan nan nan nan nan nan nan nan nan nan nan 37 37 27 42 42 42 54 66 61 47 47 22 8 8 8 26 45 59 59 63 53 53 31 22 18 18 19
nan nan nan nan nan nan nan nan nan nan 10 24 32 32 24 8 12 12 24 28 28 33 24 19 19 23 28 32 24 24 2 nan nan nan nan 3 8 8 5 8 8 7 8 11 11 3 0 nan nan nan nan nan nan nan nan nan nan nan nan nan nan nan nan 13 13 26 39 47 38 38 20 8 6 6 15 33 41 41 51 65 65 55 20 11 11 10
nan nan nan nan nan nan nan nan nan nan nan nan 1 1 31 36 18 18 2 1 1 5 10 10 10 12 20 20 17 17 11 nan 3 3 22 19 7 7 4 2 2 2 2 8 8 13 10 2 2 nan nan nan nan nan nan nan nan nan nan nan nan nan nan nan nan 0 2 7 11 11 12 7 4 4 7 19 31 31 36 32 32 37 18 9 9 10
nan nan nan nan nan nan nan nan nan nan 0 7 22 22 14 nan nan nan nan nan nan 2 11 13 13 12 13 14 15 15 16 12 49 49 51 10 2 2 0 0 0 2 2 3 3 4 5 4 4 nan nan nan nan nan nan nan nan nan nan nan nan nan nan nan nan nan nan nan 0 0 8 6 6 6 7 19 29 29 33 29 29 32 54 15 15 13
nan nan nan nan nan nan nan nan nan nan 5 14 7 7 nan nan nan nan nan nan nan 4 11 14 14 16 15 16 14 14 15 11 37 37 24 2 nan nan 1 1 1 1 1 1 1 1 1 0 0 nan nan nan nan nan nan nan nan nan nan nan nan nan nan nan nan nan nan nan nan nan nan nan 3 3 4 14 29 29 32 35 35 33 46 33 33 16
nan nan nan nan nan nan 2 nan nan nan 4 0 nan nan nan nan nan nan nan nan nan 4 11 18 18 29 28 20 15 15 8 nan 5 5 6 2 nan nan 1 1 1 0 2 3 3 2 2 2 2 6 3 nan nan nan nan nan nan nan nan nan nan nan nan nan nan nan nan nan nan nan nan nan nan nan 1 13 32 32 39 38 38 34 34 45 45 32
nan nan nan nan nan nan nan nan nan nan nan nan nan nan nan nan nan nan nan nan nan 6 18 26 26 32 31 30 18 18 12 2 5 5 6 0 1 1 1 1 1 1 2 2 2 0 0 2 2 6 6 1 nan nan nan nan nan nan nan nan nan nan nan nan nan nan nan nan nan nan nan nan nan nan 2 29 41 41 50 50 50 44 38 37 37 32
0 0 nan nan nan nan nan nan nan nan nan nan nan nan nan nan nan nan nan nan nan 7 19 25 25 14 16 8 8 8 5 1 0 0 1 nan nan nan 1 1 1 3 1 nan nan nan 0 1 1 3 1 0 nan nan nan nan nan nan nan nan nan nan nan nan nan nan nan nan nan nan nan nan nan nan 2 30 51 51 63 54 54 44 38 35 35 34
nan nan nan nan nan nan nan nan nan nan nan nan nan nan nan nan nan nan nan 1 1 7 5 nan nan nan nan 2 nan nan nan nan nan nan nan nan nan nan nan 0 0 0 nan nan nan nan nan nan nan nan nan nan nan nan nan nan nan nan nan nan nan nan nan nan nan nan nan nan nan nan nan nan nan nan 1 19 39 39 34 24 24 28 25 18 18 24
nan nan nan nan nan nan nan nan nan nan nan nan nan nan nan nan nan nan 1 1 1 nan nan nan nan nan nan nan nan nan nan nan nan nan nan nan nan nan nan nan nan nan nan nan nan nan nan nan nan nan nan nan nan nan nan nan nan nan nan nan nan nan nan nan nan nan nan nan nan nan nan nan nan nan 0 6 13 13 10 3 3 8 5 0 0 5
nan nan nan 0 0 nan nan nan nan nan nan nan 0 0 1 0 nan nan nan nan nan nan nan nan nan nan nan nan nan nan nan nan nan nan nan nan nan nan nan nan nan nan nan nan nan nan nan nan nan nan 0 nan nan nan nan nan nan nan nan nan nan nan nan nan nan nan nan nan nan nan nan nan nan nan 0 4 7 7 3 2 2 3 3 nan nan nan
nan nan nan nan nan nan 0 nan nan nan nan nan nan nan nan nan nan nan nan nan nan nan nan nan nan nan nan nan nan nan nan nan nan nan nan nan nan nan nan nan nan nan nan nan nan nan nan nan nan nan nan nan nan nan 0 nan nan 0 4 0 0 nan nan nan nan nan nan nan nan nan nan nan nan nan 1 4 0 0 0 nan nan 0 2 nan nan nan
2 nan nan nan nan nan nan nan nan nan nan nan nan nan nan nan nan nan nan nan nan nan nan nan nan nan nan nan nan nan nan nan nan nan nan nan nan nan nan nan nan nan nan nan nan nan nan nan nan nan nan nan nan nan nan nan nan nan 1 nan nan nan nan 0 0 nan nan nan nan nan nan nan nan nan 1 3 nan nan nan nan nan 1 6 nan nan nan
nan nan nan nan nan nan nan 0 1 1 1 0 nan nan nan nan nan nan nan nan nan nan nan nan nan nan nan nan nan nan nan nan nan nan nan nan nan nan nan nan nan nan nan nan nan nan nan nan nan nan nan nan nan nan nan nan nan nan nan 0 0 nan 0 nan nan nan nan nan nan nan nan nan nan nan 4 2 nan nan nan nan nan 6 8 nan nan nan
nan nan nan nan nan nan nan 0 0 0 0 nan nan nan nan nan nan nan 0 nan nan nan nan nan nan nan nan nan nan nan nan nan nan nan nan nan nan nan nan nan nan nan nan nan nan nan nan nan nan nan nan nan 0 0 nan nan nan nan nan nan nan nan nan nan nan nan nan nan nan nan nan nan 3 3 3 0 nan nan nan nan nan nan nan nan nan nan
nan nan nan nan nan nan nan nan 0 0 nan nan nan nan nan nan nan nan nan nan nan nan nan nan nan 0 nan nan nan nan nan nan nan nan nan nan 0 0 nan nan nan nan nan nan nan nan nan nan nan nan nan 0 1 1 nan nan nan nan nan nan nan nan nan nan nan nan nan 0 1 1 1 nan 0 0 0 nan nan nan nan nan nan nan nan nan nan nan
nan nan nan nan nan nan nan nan nan nan nan nan nan nan nan nan nan nan nan nan nan nan 0 1 1 1 0 nan nan nan nan nan nan nan nan nan nan nan nan nan nan nan nan nan nan nan nan 0 0 1 2 3 1 1 0 nan nan nan nan nan nan nan nan nan nan nan 0 4 3 3 nan nan nan nan nan nan nan nan nan nan nan nan nan nan nan nan
nan nan nan nan nan nan nan nan nan nan nan nan nan nan nan nan nan nan nan nan nan 0 3 3 3 0 0 0 nan nan nan nan nan nan nan nan nan nan nan nan nan 0 nan 0 0 0 1 1 1 2 4 3 0 0 nan nan nan nan nan 0 0 nan nan nan nan nan nan nan nan nan nan nan nan nan nan nan nan nan nan nan nan nan nan nan nan nan
nan nan nan nan nan nan nan nan nan nan nan nan nan nan nan nan nan nan nan nan nan 2 7 2 2 0 0 nan nan nan nan nan nan nan nan nan nan nan nan nan nan 0 3 3 3 4 1 0 0 nan nan nan 0 0 nan nan nan nan 0 2 2 1 nan nan nan nan nan nan nan nan nan nan nan nan nan nan 0 0 nan nan nan nan nan nan nan nan
nan nan nan nan nan nan nan nan nan nan nan nan nan nan nan 0 12 12 0 0 0 1 1 1 1 0 nan nan nan nan 0 0 nan nan nan nan nan nan nan nan nan 0 1 nan nan nan nan nan nan nan nan nan nan nan nan nan nan nan nan 2 2 3 3 nan nan nan nan nan nan nan nan nan nan nan nan 1 2 2 0 0 0 nan nan nan nan nan
nan nan nan nan nan nan nan nan nan nan nan nan nan nan nan nan nan nan nan nan nan 0 0 0 0 0 nan nan nan nan nan 0 0 0 nan nan nan nan nan nan nan 0 nan nan nan nan nan nan nan nan nan nan nan nan nan nan nan nan nan 0 0 3 5 0 0 nan nan nan nan nan nan nan nan nan nan 3 5 5 3 1 1 nan nan nan nan nan
nan nan nan nan nan nan nan nan nan nan nan nan nan nan nan nan nan nan nan nan nan 0 0 nan nan 0 0 nan nan nan 1 1 1 1 1 1 nan nan 2 3 3 5 5 nan nan nan nan nan nan nan nan 3 3 3 nan nan nan nan nan nan nan nan 5 3 3 nan nan nan nan nan nan nan nan nan 0 7 12 12 7 0 0 nan nan nan nan nan
CIN
nan nan nan nan nan nan nan nan nan nan nan nan nan nan nan nan nan nan nan nan nan nan nan nan nan nan nan nan nan nan nan nan nan nan nan nan nan nan nan nan nan nan nan nan nan -0 -0 -0 -0 -0 -0 -0 -0 -0 -0 -0 -0 -0 -0 -0 -0 -0 -0 -0 -0 -0 -0 -0 -0 -0 -0 -2 -10 -10 nan nan nan nan nan nan nan -4 -0 -0 -0 -0
nan nan nan nan nan nan nan nan nan nan nan nan nan nan nan nan nan nan nan nan nan nan nan nan nan nan nan nan nan nan nan nan nan nan nan nan nan nan nan nan nan nan -0 -0 -0 -0 -0 -0 -0 -0 -0 -0 -0 -0 -0 -0 -0 -0 -0 -0 -0 -0 -0 -0 -0 -0 -0 -0 -0 -0 -0 -3 -14 -14 nan nan nan nan nan nan nan -4 -0 -0 -0 -0
nan nan nan nan nan nan nan nan nan nan nan nan nan nan nan nan nan nan nan nan nan nan nan nan nan nan nan nan nan nan nan nan nan nan nan nan nan nan nan nan nan -0 -0 -0 -0 -0 -0 -0 -0 -0 -0 -0 -0 -0 -0 -0 -0 -0 -0 -0 -0 -0 -0 -0 -0 -0 -0 -0 -0 -0 -0 -2 -16 -16 nan nan nan nan nan nan nan nan -0 -0 -0 -0
nan nan nan nan nan nan nan nan nan nan nan nan nan nan nan nan nan nan nan nan nan nan nan nan nan nan nan nan nan nan nan nan nan nan nan nan nan nan nan nan nan -0 -0 -0 -0 -0 -0 -0 -0 -0 -0 -0 -0 -0 -0 -0 -0 -0 -0 -0 -0 -0 -0 -0 -0 -0 -0 -0 -0 -0 -0 -2 -8 -8 -12 nan nan nan nan nan nan nan -0 -0 -0 -0
nan nan nan nan nan nan nan nan nan nan nan nan nan nan nan nan nan nan nan nan nan nan nan nan nan nan nan nan nan nan nan -0 nan nan nan nan nan nan nan nan nan nan -0 -0 -0 -0 -0 -0 -0 -0 -0 -0 -0 -0 -0 -0 -0 -0 -0 -0 -0 -0 -0 -0 -0 -0 -0 -0 -0 -0 -0 -0 -1 -1 -5 -9 nan nan nan nan nan nan -0 -0 -0 -0
nan nan nan nan nan nan nan nan nan nan nan nan nan nan nan nan nan nan nan nan nan nan nan nan nan nan nan nan nan nan -0 -0 -0 -0 nan nan nan nan nan nan nan nan -0 -0 -0 -0 -0 -0 -0 -0 -0 -0 -0 -0 -0 -0 -0 -0 -0 -0 -0 -0 -0 -0 -0 -0 -0 -0 -0 -0 -0 -0 -0 -0 -3 -6 -7 -7 nan nan nan nan nan -0 -0 -0
nan nan nan nan nan nan nan nan nan nan nan nan nan nan nan nan nan nan nan nan nan nan nan nan nan nan nan nan nan nan -0 -0 nan nan nan nan nan nan -0 -0 -0 -0 -0 -0 -0 -0 -0 -0 -0 -0 -0 -0 -0 -0 -0 -0 -0 -0 -0 -0 -0 -0 -0 -0 -0 -0 -0 -0 -0 -0 -0 -0 -0 -0 -0 -2 -1 -1 -3 -6 -6 nan nan -0 -0 -0
nan nan nan nan nan nan nan nan nan nan nan nan nan nan nan nan nan nan nan nan nan nan nan nan nan nan nan nan nan nan nan nan nan nan nan nan nan nan -0 -0 -0 -0 -0 -0 -0 -0 -0 -0 -0 -0 -0 -0 -0 -0 -0 -0 -0 -0 -0 -0 -0 -0 -0 -0 -0 -0 -0 -0 -0 -0 -0 -0 -0 -0 -0 -0 -0 -0 -0 -0 -0 -0 -0 -0 -0 -0
nan nan nan nan nan nan nan nan nan nan nan nan nan nan nan nan nan nan nan nan nan nan nan nan nan nan nan nan nan nan nan nan nan nan nan nan nan nan nan -0 -0 -0 -0 -0 -0 -0 -0 -0 -0 -0 -0 -0 -0 -0 -0 -0 -0 -0 -0 -0 -0 -0 -0 -0 -0 -0 -0 -0 -0 -0 -0 -0 -0 -0 -0 -0 -0 -0 -0 -0 -0 -0 -0 -0 -0 -0
nan nan nan nan nan nan nan nan nan nan nan nan nan nan nan nan nan nan nan nan nan nan nan nan nan nan nan nan nan nan nan nan -0 -0 -0 nan -0 -0 -0 -0 -0 nan -0 -0 -0 -0 -0 -0 -0 -0 -0 -0 -0 -0 -0 -0 -0 -0 -0 -0 -0 -0 -0 -0 -0 -0 -0 -0 -0 -0 -0 -0 -0 -0 -0 -0 -0 -0 -0 -0 -0 -0 -0 -0 -0 -0
nan nan nan nan nan nan nan nan nan nan nan nan nan nan nan nan nan nan nan nan nan nan nan nan nan nan nan nan nan nan nan nan nan nan nan nan -0 -0 -0 -0 -0 -0 -0 -0 -0 -0 -0 nan nan -0 -0 -0 -0 -0 -0 -0 -0 -0 -0 -0 -0 -0 -0 -0 -0 -0 -0 -0 -0 -0 -0 -0 -0 -0 -0 -0 -0 -0 -0 -0 -0 -0 -0 -0 -0 -0
nan nan -18 nan nan nan nan nan nan nan nan nan nan nan nan nan nan nan nan nan nan nan nan nan nan nan nan nan nan nan nan nan nan nan nan nan nan nan nan nan nan nan nan nan nan nan nan nan nan -0 -0 -0 -0 -0 -0 -0 -0 -0 -0 -0 -0 -0 -0 -0 -0 -0 -0 -0 -0 -0 -0 -0 -0 -0 -0 -0 -0 -0 -0 -0 -0 -0 -0 -0 -0 -0
-16 -16 -16 -16 -16 nan nan nan nan nan nan nan nan nan nan nan nan nan nan nan nan nan nan nan nan nan nan nan nan nan nan nan nan nan nan nan nan nan nan nan nan nan nan nan nan nan nan nan nan -0 -0 -0 -0 -0 -0 -0 -0 -0 -0 -0 -0 -0 -0 -0 -0 -0 -0 -0 -0 -0 -0 -0 -0 -0 -0 -0 -0 -0 -0 -0 -0 -0 -0 -0 -0 -0
-8 -9 -8 -10 -10 -9 nan nan nan nan nan nan nan nan nan nan nan nan nan nan nan nan nan nan nan nan nan nan nan nan nan nan nan nan nan nan nan nan nan nan nan nan nan nan nan nan nan nan nan nan nan nan nan nan -0 -0 -0 -0 -0 -0 -0 -0 -0 -0 -0 -0 -0 -0 -0 -0 -0 -0 -0 -0 -0 -0 -0 -0 -0 -0 -0 -0 -0 -0 -0 -0
-4 -5 -5 -9 -9 nan nan nan nan nan nan nan nan nan nan nan nan nan nan nan nan nan nan nan nan nan nan nan nan nan nan nan nan nan nan nan nan nan nan nan nan nan nan nan nan nan nan nan nan nan nan nan nan nan nan -0 -0 -0 -0 -0 -0 -0 -0 -0 -0 -0 -0 -0 -0 -0 -0 -0 -0 -0 -0 -0 -0 -0 -0 -0 -0 -0 -0 -0 -0 -0
-3 -4 -7 -6 -6 nan nan nan nan nan nan nan nan nan nan nan nan nan nan nan nan nan -14 nan nan nan nan nan nan nan nan nan nan nan nan nan nan nan nan nan nan nan nan nan nan nan nan nan nan nan nan nan -0 -0 -0 -0 -0 -0 -0 -0 -0 -0 -0 -0 -0 -0 -0 -0 -0 -0 -0 -0 -0 -0 -0 -0 -0 -0 -0 -0 -0 -0 -0 -0 -0 -0
-7 nan -5 nan nan nan nan nan nan nan nan nan nan nan nan nan nan nan nan -15 -15 nan -10 -12 -12 -12 -10 nan nan nan nan nan nan nan nan nan nan nan nan nan nan nan nan nan nan nan nan nan nan nan nan nan -0 -0 -0 -0 -0 -0 -0 -0 -0 -0 -0 -0 -0 -0 -0 -0 -0 -0 -0 -0 -0 -0 -0 -0 -0 -0 -0 -0 -0 -0 -0 -0 -0 -0
nan nan nan nan nan nan nan nan nan nan nan -10 nan nan -16 -14 -15 -15 -16 -14 -14 -13 -11 -12 -12 -9 -9 -10 nan nan nan nan nan nan -12 -12 nan nan nan nan nan nan nan nan nan nan nan nan nan nan nan -0 -0 -0 -0 -0 -0 -0 -0 -0 -0 -0 -0 -0 -0 -0 -0 -0 -0 -0 -0 -0 -0 -0 -0 -0 -0 -0 -0 -0 -0 nan nan -0 -0 -0
nan nan nan nan nan nan nan nan nan nan -9 -8 -13 -13 -9 -11 -13 -13 -14 -15 -15 -12 -13 -10 -10 -9 -8 -7 nan nan nan nan nan nan -9 -9 nan nan nan nan nan nan nan nan nan nan nan nan nan nan -1 -0 -0 -0 -0 -0 -0 -0 -0 -0 -0 -0 -0 -0 -0 -0 -0 -0 -0 -0 -0 -0 -0 -0 -0 -0 -0 -0 -0 -0 -0 -0 nan -0 -0 -0
nan nan nan nan nan nan nan nan -5 -5 -4 -4 -7 -7 -8 -9 -9 -9 -12 -15 -15 -11 -10 -8 -8 -8 -8 -10 nan nan nan nan nan nan -9 -5 nan nan nan nan nan nan nan nan nan nan nan nan nan nan nan -1 -0 -0 -0 -0 -0 -0 -0 -0 -0 -0 -0 -0 -0 -0 -0 -0 -0 -0 -0 -0 -0 -0 -0 -0 -0 -0 -0 -0 -0 -0 nan nan nan -0
nan nan nan nan nan nan nan nan nan nan -10 -10 -11 -11 -8 -8 -7 -7 -9 -8 -8 -7 -7 -5 -5 -6 -8 -14 nan nan nan nan -5 -5 -6 -7 -26 -26 nan nan nan nan nan nan nan nan nan nan nan nan nan -1 -0 -0 -0 -0 -0 -0 -0 -0 -0 -0 -0 -0 -0 -0 -0 -0 -0 -0 -0 -0 -0 -0 -0 -0 -0 -0 -0 -0 -0 -0 nan nan nan -0
nan nan nan nan nan nan -2 nan -13 -13 -12 -10 -11 -11 -6 -6 -4 -4 -6 -6 -6 -5 -3 -3 -3 -7 -13 -19 nan nan nan nan -6 -6 -5 -5 -15 -15 nan nan nan nan nan nan nan nan nan nan nan nan nan -0 -0 -0 -0 -0 -0 -0 -0 -0 -0 -0 -0 -0 -0 -0 -0 -0 -0 -0 -0 -0 -0 -0 -0 -0 -0 -0 -0 -0 -0 -0 nan nan nan -0
nan nan nan nan nan nan nan -20 -9 -9 -2 -3 -2 -2 -4 -3 -3 -3 -3 -4 -4 -3 -3 -5 -5 -10 -16 nan nan nan nan -32 -14 -14 -7 -2 nan nan nan nan nan nan nan nan nan nan nan nan nan nan nan -0 -0 -0 -0 -0 -0 -0 -0 -0 -0 -0 -0 -0 -0 -0 -0 -0 -0 -0 -0 -0 -0 -0 -0 -0 -0 -0 -0 -0 -0 -0 nan nan nan nan
nan nan nan nan nan -28 -18 -10 -12 -12 -12 -10 -9 -9 -12 -13 -9 -9 -5 -4 -4 -3 -4 -6 -6 -10 nan nan nan nan nan nan -47 -47 -17 -5 -12 -12 nan nan nan nan nan nan nan nan nan nan nan nan nan -0 -0 -0 -0 -0 -0 -0 -0 -0 -0 -0 -0 -0 -0 -0 -0 -0 -0 -0 -0 -0 -0 -0 -0 -0 -0 -0 -0 -0 -0 -0 nan nan nan nan
nan -22 -9 -9 -9 -6 -10 -14 -15 -15 -22 -37 -53 -53 -50 -23 -7 -7 -7 -3 -3 -1 -4 -5 -5 -5 -10 -3 -12 -12 nan nan nan nan nan -13 nan nan nan nan nan nan -16 nan nan nan nan nan nan nan nan -13 -0 -0 -0 -0 -0 -0 -0 -0 -0 -0 -0 -0 -0 -0 -0 -0 -0 -0 -0 -0 -0 -0 -0 -0 -0 -0 -0 -0 -0 -0 nan nan nan nan
-4 -3 -2 -1 -1 -0 -0 -0 -0 -0 -0 -13 -27 -27 -22 -10 -5 -5 -3 -2 -2 -3 -7 -7 -7 -5 -8 -10 -8 -8 nan nan nan nan nan -14 nan nan nan nan nan -14 -10 nan nan nan nan nan nan nan nan nan -0 -0 -0 -0 -0 -0 -0 -0 -0 -0 -0 -0 -0 -0 -0 -0 -0 -0 -0 -0 -0 -0 -0 -0 -0 -0 -0 -0 -0 nan nan -0 -0 -0
-0 -0 -0 -0 -0 -0 -0 -0 -0 -0 -0 -0 -2 -2 -10 -10 -3 -3 -2 -3 -3 -3 -2 -2 -2 -5 -12 -11 -11 -11 nan nan nan nan nan -26 -9 -9 nan nan nan -20 -18 nan nan nan -14 -10 -10 -21 nan nan -21 -21 -2 -1 -1 -0 -0 -0 -0 -0 -0 -0 -0 -0 -0 -0 -0 -0 -0 -0 -0 -0 -0 -0 -0 -0 -0 -0 -0 -0 -0 -0 -0 -0
-0 -0 -0 -0 -0 -0 -0 -0 -0 -0 -0 -0 -0 -0 -0 -5 -1 -1 -1 -3 -3 -3 -1 -1 -1 -3 -6 -8 -15 -15 -26 -25 nan nan nan -33 -6 -6 -20 nan nan nan -12 -19 -19 -21 -1 -7 -7 nan nan nan nan nan -21 -4 -4 -0 -0 -0 -0 -0 -0 -0 -0 -0 -0 -0 -0 -0 -0 -0 -0 -0 -0 -0 -0 -0 -0 -0 -0 -0 -0 -0 -0 -0
-0 -0 -0 -0 -0 -0 -0 -0 -0 -0 -0 -0 -0 -0 -0 -5 -1 -1 -2 -3 -3 -2 -1 -0 -0 -1 -1 -3 -12 -12 -19 -13 nan nan nan nan -6 -6 nan nan nan -27 -8 -7 -7 -17 -10 -22 -22 nan nan nan nan nan -43 -4 -4 -0 -0 -0 -0 -0 -0 -0 -0 -0 -0 -0 -0 -0 -0 -0 -0 -0 -0 -0 -0 -0 -0 -0 -0 -0 -2 -1 -1 -1
nan nan nan -0 -0 -0 -0 nan -0 -0 -0 -0 -0 -0 -0 -5 -2 -2 -2 -2 -2 -1 -0 -0 -0 -0 -0 -2 -5 -5 -20 nan nan nan nan nan -4 -4 -10 -8 -8 -8 -6 -5 -5 -8 nan nan nan nan nan nan nan nan nan nan nan nan nan -0 -0 -0 -0 -0 -0 -0 -0 -0 -0 -0 -0 -0 -0 -0 -0 -0 -0 -0 -0 -0 -0 -1 -3 -3 -3 -2
nan nan nan nan nan nan nan nan nan nan -0 -0 -0 -0 -0 -8 -4 -4 -1 -1 -1 -0 -0 -0 -0 -0 -0 -0 -1 -1 -15 nan nan nan nan -9 -4 -4 -8 -8 -8 -12 -9 -2 -2 -5 -11 nan nan nan nan nan nan nan nan nan nan nan nan nan nan nan nan -0 -0 -0 -0 -0 -0 -0 -0 -0 -0 -0 -0 -0 -0 -0 -0 -0 -0 -0 -4 -5 -5 -4
nan nan nan nan nan nan nan nan nan nan nan nan -18 -18 -0 -0 -0 -0 -2 -4 -4 -1 -0 -0 -0 -0 -0 -0 -1 -1 -2 nan -27 -27 -12 -8 -11 -11 -9 -7 -7 -7 -10 -8 -8 -2 -2 -6 -6 nan nan nan nan nan nan nan nan nan nan nan nan nan nan nan nan -1 -2 -0 -0 -0 -0 -0 -0 -0 -0 -0 -0 -0 -0 -0 -0 -0 -3 -3 -3 -2
nan nan nan nan nan nan nan nan nan nan -22 -6 -0 -0 -2 nan nan nan nan nan nan -4 -0 -0 -0 -0 -0 -1 -2 -2 -3 -11 -0 -0 -4 -10 -7 -7 -8 -7 -7 -6 -8 -8 -8 -8 -5 -5 -5 nan nan nan nan nan nan nan nan nan nan nan nan nan nan nan nan nan nan nan -4 -4 -0 -0 -0 -0 -0 -0 -0 -0 -0 -0 -0 -0 -0 -2 -2 -2
nan nan nan nan nan nan nan nan nan nan -10 -0 -3 -3 nan nan nan nan nan nan nan -3 -1 -0 -0 -0 -0 -0 -0 -0 -2 -11 -1 -1 -3 -3 nan nan -5 -5 -5 -6 -7 -5 -5 -7 -6 -9 -9 nan nan nan nan nan nan nan nan nan nan nan nan nan nan nan nan nan nan nan nan nan nan nan -0 -0 -0 -0 -0 -0 -0 -0 -0 -0 -0 -0 -0 -1
nan nan nan nan nan nan -12 nan nan nan -5 -20 nan nan nan nan nan nan nan nan nan -2 -1 -1 -1 -0 -0 -0 -0 -0 -0 nan -7 -7 -3 -4 nan nan -3 -3 -3 -5 -3 -3 -3 -3 -4 -5 -5 -2 -3 nan nan nan nan nan nan nan nan nan nan nan nan nan nan nan nan nan nan nan nan nan nan nan -0 -0 -0 -0 -0 -0 -0 -0 -0 -0 -0 -0
nan nan nan nan nan nan nan nan nan nan nan nan nan nan nan nan nan nan nan nan nan -1 -0 -1 -1 -1 -1 -0 -0 -0 -0 -5 -2 -2 -2 -6 -4 -4 -1 -1 -1 -3 -2 -2 -2 -3 -4 -3 -3 -1 -0 -2 nan nan nan nan nan nan nan nan nan nan nan nan nan nan nan nan nan nan nan nan nan nan -1 -0 -0 -0 -0 -0 -0 -0 -0 -0 -0 -0
-8 -8 nan nan nan nan nan nan nan nan nan nan nan nan nan nan nan nan nan nan nan -5 -2 -1 -1 -2 -0 -3 -2 -2 -2 -4 -7 -7 -4 nan nan nan -1 -1 -1 -0 -1 nan nan nan -2 -2 -2 -1 -2 -4 nan nan nan nan nan nan nan nan nan nan nan nan nan nan nan nan nan nan nan nan nan nan -1 -0 -0 -0 -0 -0 -0 -0 -0 -0 -0 -0
nan nan nan nan nan nan nan nan nan nan nan nan nan nan nan nan nan nan nan -17 -17 -10 -10 nan nan nan nan -3 nan nan nan nan nan nan nan nan nan nan nan -1 -1 -1 nan nan nan nan nan nan nan nan nan nan nan nan nan nan nan nan nan nan nan nan nan nan nan nan nan nan nan nan nan nan nan nan -2 -0 -0 -0 -1 -1 -1 -0 -0 -0 -0 -0
nan nan nan nan nan nan nan nan nan nan nan nan nan nan nan nan nan nan -16 -17 -17 nan nan nan nan nan nan nan nan nan nan nan nan nan nan nan nan nan nan nan nan nan nan nan nan nan nan nan nan nan nan nan nan nan nan nan nan nan nan nan nan nan nan nan nan nan nan nan nan nan nan nan nan nan -3 -2 -1 -1 -2 -3 -3 -2 -2 -3 -3 -0
nan nan nan -3 -3 nan nan nan nan nan nan nan -14 -14 -11 -16 nan nan nan nan nan nan nan nan nan nan nan nan nan nan nan nan nan nan nan nan nan nan nan nan nan nan nan nan nan nan nan nan nan nan -1 nan nan nan nan nan nan nan nan nan nan nan nan nan nan nan nan nan nan nan nan nan nan nan -4 -2 -2 -2 -2 -3 -3 -2 -1 nan nan nan
nan nan nan nan nan nan -4 nan nan nan nan nan nan nan nan nan nan nan nan nan nan nan nan nan nan nan nan nan nan nan nan nan nan nan nan nan nan nan nan nan nan nan nan nan nan nan nan nan nan nan nan nan nan nan -3 nan nan -4 -1 -3 -3 nan nan nan nan nan nan nan nan nan nan nan nan nan -4 -2 -12 -12 -9 nan nan -3 -2 nan nan nan
-0 nan nan nan nan nan nan nan nan nan nan nan nan nan nan nan nan nan nan nan nan nan nan nan nan nan nan nan nan nan nan nan nan nan nan nan nan nan nan nan nan nan nan nan nan nan nan nan nan nan nan nan nan nan nan nan nan nan -3 nan nan nan nan -12 -12 nan nan nan nan nan nan nan nan nan -2 -1 nan nan nan nan nan -2 -1 nan nan nan
nan nan nan nan nan nan nan -15 -11 -11 -16 -18 nan nan nan nan nan nan nan nan nan nan nan nan nan nan nan nan nan nan nan nan nan nan nan nan nan nan nan nan nan nan nan nan nan nan nan nan nan nan nan nan nan nan nan nan nan nan nan -4 -4 nan -2 nan nan nan nan nan nan nan nan nan nan nan -2 -2 nan nan nan nan nan -1 -1 nan nan nan
nan nan nan nan nan nan nan -17 -20 -20 -18 nan nan nan nan nan nan nan -11 nan nan nan nan nan nan nan nan nan nan nan nan nan nan nan nan nan nan nan nan nan nan nan nan nan nan nan nan nan nan nan nan nan -3 -3 nan nan nan nan nan nan nan nan nan nan nan nan nan nan nan nan nan nan -3 -3 -3 -5 nan nan nan nan nan nan nan nan nan nan
nan nan nan nan nan nan nan nan -18 -18 nan nan nan nan nan nan nan nan nan nan nan nan nan nan nan -8 nan nan nan nan nan nan nan nan nan nan -9 -9 nan nan nan nan nan nan nan nan nan nan nan nan nan -5 -3 -3 nan nan nan nan nan nan nan nan nan nan nan nan nan -8 -8 -8 -12 nan -9 -9 -6 nan nan nan nan nan nan nan nan nan nan nan
nan nan nan nan nan nan nan nan nan nan nan nan nan nan nan nan nan nan nan nan nan nan -11 -9 -9 -7 -6 nan nan nan nan nan nan nan nan nan nan nan nan nan nan nan nan nan nan nan nan -8 -8 -5 -3 -3 -3 -3 -4 nan nan nan nan nan nan nan nan nan nan nan -5 -3 -4 -4 nan nan nan nan nan nan nan nan nan nan nan nan nan nan nan nan
nan nan nan nan nan nan nan nan nan nan nan nan nan nan nan nan nan nan nan nan nan -11 -6 -6 -6 -6 -6 -6 nan nan nan nan nan nan nan nan nan nan nan nan nan -18 nan -13 -13 -12 -9 -7 -7 -4 -1 -1 -4 -4 nan nan nan nan nan -7 -7 nan nan nan nan nan nan nan nan nan nan nan nan nan nan nan nan nan nan nan nan nan nan nan nan nan
nan nan nan nan nan nan nan nan nan nan nan nan nan nan nan nan nan nan nan nan nan -6 -1 -5 -5 -5 -6 nan nan nan nan nan nan nan nan nan nan nan nan nan nan -14 -10 -9 -9 -8 -13 -16 -16 nan nan nan -1 -1 nan nan nan nan -7 -5 -5 -5 nan nan nan nan nan nan nan nan nan nan nan nan nan nan -3 -3 nan nan nan nan nan nan nan nan
nan nan nan nan nan nan nan nan nan nan nan nan nan nan nan -10 -0 -0 -10 -14 -14 -9 -5 -4 -4 -5 nan nan nan nan -4 -5 nan nan nan nan nan nan nan nan nan -13 -14 nan nan nan nan nan nan nan nan nan nan nan nan nan nan nan nan -8 -8 -5 -4 nan nan nan nan nan nan nan nan nan nan nan nan -0 -1 -1 -3 -6 -6 nan nan nan nan nan
nan nan nan nan nan nan nan nan nan nan nan nan nan nan nan nan nan nan nan nan nan -10 -7 -6 -6 -5 nan nan nan nan nan -6 -7 -7 nan nan nan nan nan nan nan -14 nan nan nan nan nan nan nan nan nan nan nan nan nan nan nan nan nan -16 -16 -8 -4 -8 -8 nan nan nan nan nan nan nan nan nan nan -0 -1 -1 -2 -5 -5 nan nan nan nan nan
nan nan nan nan nan nan nan nan nan nan nan nan nan nan nan nan nan nan nan nan nan -12 -11 nan nan -5 -3 nan nan nan -2 -3 -4 -4 -5 -10 nan nan -7 -5 -5 -5 -3 nan nan nan nan nan nan nan nan -21 -31 -31 nan nan nan nan nan nan nan nan -4 -4 -4 nan nan nan nan nan nan nan nan nan -4 -1 -1 -1 -2 -7 -7 nan nan nan nan nan
Wind_Speed
2 3 3 4 4 4 4 4 5 6 6 6 7 7 7 8 7 7 9 8 8 8 8 9 9 10 12 16 19 22 24 25 25 26 26 27 27 27 27 27 27 27 27 27 27 28 28 28 28 28 29 28 28 27 27 27 27 28 29 29 29 28 28 28 27 28 28 29 29 29 27 25 22 20 19 19 20 20 21 21 21 21 22 23 24 25
3 3 3 3 3 4 4 4 5 5 6 7 7 7 8 7 7 7 7 7 7 7 8 9 9 10 10 12 17 21 23 24 25 26 27 27 28 28 28 27 27 27 27 27 27 27 28 28 28 28 28 28 27 27 26 26 27 28 28 29 29 29 28 28 27 28 28 29 29 28 27 24 21 19 18 19 20 21 22 22 21 21 21 23 24 25
3 3 3 3 3 3 4 4 4 4 5 6 6 7 7 7 7 7 6 7 7 7 7 8 8 9 9 10 15 19 22 24 25 26 27 27 28 28 28 27 27 27 27 27 27 28 28 28 28 28 28 27 27 26 26 26 26 27 28 28 28 28 28 28 27 27 27 27 27 26 25 22 20 18 19 20 21 22 22 22 21 21 20 22 23 25
3 4 4 3 3 3 3 4 4 4 5 5 6 6 6 6 6 6 6 6 6 6 6 7 7 8 7 8 11 16 21 23 24 25 26 27 27 28 28 27 27 27 27 27 28 28 28 28 28 28 28 27 27 27 26 27 27 27 27 27 27 28 28 28 27 27 26 25 25 24 23 21 20 19 19 20 21 22 22 22 22 21 21 21 23 24
3 4 4 3 3 3 3 4 4 4 5 5 5 5 5 5 5 5 6 6 6 6 6 6 7 7 7 7 10 14 19 22 23 24 25 26 26 27 27 27 27 27 27 28 28 28 28 28 28 28 28 28 28 28 28 28 28 28 28 28 27 27 27 27 27 26 26 25 24 23 23 22 21 21 20 20 21 21 22 22 22 21 21 21 22 24
3 3 4 3 3 3 3 3 4 4 4 4 4 4 5 5 5 5 5 5 5 5 5 5 5 6 7 7 10 14 18 20 22 23 23 24 25 25 26 26 27 27 28 28 28 28 28 28 28 28 28 28 28 28 29 29 29 29 29 28 28 27 27 27 26 26 26 25 25 24 24 23 22 21 21 21 21 21 22 22 22 22 22 22 22 24
3 3 3 3 3 3 3 3 4 4 3 4 4 5 5 4 4 4 5 4 4 5 5 5 5 5 6 7 10 12 14 17 18 20 21 22 23 23 24 25 26 27 28 28 28 28 28 28 28 28 28 28 28 28 29 29 29 29 29 29 28 28 27 27 26 26 25 25 25 25 25 24 24 22 22 21 21 21 22 22 22 22 22 22 23 23
4 4 3 3 3 3 3 3 3 3 4 4 5 5 6 5 4 4 4 4 4 4 5 5 5 5 5 6 8 9 10 11 13 14 16 17 18 20 21 23 24 26 27 27 28 28 29 29 29 28 28 28 28 28 28 28 28 28 28 28 28 28 27 27 26 26 25 25 24 25 25 25 25 24 23 22 22 22 22 22 23 23 23 23 23 23
5 5 4 3 3 4 4 4 3 3 3 4 4 5 6 6 5 5 4 4 4 4 4 5 5 6 5 5 6 7 9 9 10 10 12 12 13 15 18 20 22 24 25 26 27 28 29 29 29 28 28 28 28 27 27 27 27 27 27 27 27 27 27 27 26 26 25 24 24 24 24 25 25 25 25 24 23 22 22 22 23 23 24 24 24 24
5 5 4 4 3 3 4 4 4 3 3 3 4 4 5 6 6 6 6 6 5 4 4 4 6 6 6 5 5 6 8 10 11 13 14 14 15 16 17 18 19 21 24 25 27 28 28 29 29 29 28 28 27 27 27 27 27 27 27 27 27 27 27 27 26 26 25 25 24 23 23 24 24 25 25 25 25 24 23 23 23 24 24 24 24 24
4 5 4 4 3 3 3 4 4 3 3 3 3 3 3 4 5 7 9 8 7 6 5 4 5 6 7 7 6 6 7 8 9 10 12 14 16 17 18 18 18 20 23 24 25 26 27 28 28 28 28 27 27 27 26 26 26 26 27 27 27 27 27 27 27 26 26 25 24 24 23 23 23 24 25 25 26 26 25 25 24 24 24 24 25 25
4 4 4 3 3 3 3 3 3 3 3 3 4 4 3 3 4 5 8 9 9 9 8 6 5 5 6 6 7 6 6 6 6 7 7 8 10 11 12 13 14 16 18 19 21 23 25 26 27 26 26 26 26 26 26 25 26 26 27 27 27 27 27 27 27 27 26 26 25 24 23 23 23 23 24 25 26 26 26 26 25 24 24 24 25 25
4 3 3 4 4 4 3 4 4 3 3 4 4 5 5 5 4 5 6 8 9 9 9 8 7 5 5 5 5 5 5 5 5 5 5 5 6 6 7 8 9 10 11 12 13 15 19 22 23 23 23 23 24 25 25 25 26 26 27 27 27 28 28 28 28 27 27 26 25 25 24 24 23 23 23 24 25 26 26 26 26 25 24 25 25 26
4 4 4 5 5 5 4 4 4 4 4 4 4 5 5 5 5 5 5 7 7 7 7 9 8 7 5 5 5 4 4 4 4 5 5 5 5 5 6 7 8 8 8 9 10 11 15 16 16 17 19 20 21 22 23 24 25 26 27 27 28 28 28 28 28 28 27 27 26 25 25 24 24 23 23 24 24 25 26 26 26 26 25 25 26 26
5 5 6 6 6 5 5 5 5 5 4 4 4 5 5 5 5 5 6 8 8 8 7 9 9 8 5 4 4 4 4 4 4 5 6 6 6 5 6 7 7 7 7 9 10 11 13 12 12 11 13 15 17 19 22 24 26 27 27 28 28 28 28 28 28 28 28 27 26 26 25 25 24 24 24 24 24 25 25 26 26 26 27 26 27 27
5 6 6 7 6 6 5 5 5 5 5 5 5 5 6 6 6 6 7 8 8 8 8 9 9 8 6 5 4 4 4 4 4 5 8 8 7 6 6 7 7 7 7 8 9 10 10 10 10 10 11 15 19 23 25 26 27 28 28 29 29 28 28 28 28 28 28 27 27 26 26 25 25 24 24 25 25 25 25 25 25 26 27 27 27 27
5 5 6 6 7 6 5 5 5 6 5 5 5 5 6 6 7 7 7 7 7 7 6 7 8 8 7 6 4 4 4 4 5 7 8 9 9 7 6 6 7 8 8 9 9 9 9 9 9 10 10 15 20 24 26 27 28 29 29 29 29 29 28 28 28 28 28 27 27 27 26 26 25 25 25 25 25 25 25 24 24 25 27 27 27 27
4 4 5 5 6 6 6 5 5 5 5 6 6 6 6 6 7 7 7 6 6 6 7 6 6 6 7 7 6 4 3 5 6 7 9 9 9 7 6 5 6 7 7 9 9 9 9 9 9 10 13 19 23 26 27 28 29 29 30 30 29 29 29 28 28 28 27 27 27 27 27 26 26 25 25 25 25 25 25 24 24 25 26 28 28 27
5 5 5 6 6 6 6 6 6 6 6 6 7 7 8 8 7 7 8 7 6 7 7 7 7 7 8 8 7 6 4 5 7 8 9 9 9 7 5 5 6 6 7 8 9 9 9 8 10 14 18 22 25 27 28 29 29 30 30 30 30 30 29 29 28 27 27 27 27 27 27 27 26 25 25 25 25 25 24 24 24 24 25 27 27 26
5 5 5 6 6 7 7 6 6 6 7 7 7 8 8 8 8 8 8 7 6 6 6 7 8 9 9 9 8 6 5 6 7 8 8 8 8 6 5 5 6 7 8 8 8 9 8 8 9 13 18 21 24 26 28 29 29 30 30 30 30 30 29 28 27 26 26 26 26 26 26 26 26 25 25 25 25 25 24 24 24 24 25 26 27 26
6 6 5 5 6 7 6 6 6 7 8 8 8 7 8 8 7 7 7 7 7 7 7 8 9 9 8 7 7 6 6 6 7 7 5 6 6 6 5 5 5 6 8 8 8 8 8 7 8 9 13 19 23 26 28 29 30 30 30 30 29 29 28 27 26 25 24 24 24 25 25 25 25 25 25 24 24 25 24 24 24 24 25 25 26 26
6 6 6 5 6 7 7 7 7 8 8 8 7 6 6 7 7 8 8 8 8 9 9 10 9 9 7 7 7 7 5 5 6 6 4 5 6 6 5 5 5 6 8 8 8 8 8 7 7 9 13 19 24 27 29 29 30 29 29 29 28 28 27 26 25 24 23 23 23 24 24 24 25 25 25 24 24 24 24 24 24 24 24 25 26 26
6 7 7 7 7 7 7 7 7 7 7 7 6 6 5 6 7 8 8 9 9 10 10 9 8 7 6 7 7 7 5 5 4 4 4 6 6 6 5 5 5 6 7 7 8 8 8 8 9 10 13 20 24 26 29 29 29 29 28 28 27 26 24 24 24 24 23 23 23 23 24 24 24 25 25 24 24 24 24 24 24 24 25 25 26 27
7 8 8 7 6 6 6 6 6 6 5 5 5 5 5 6 7 8 8 8 9 8 8 7 7 7 7 8 8 6 4 3 3 3 3 5 6 6 5 5 6 7 8 7 8 9 9 10 9 9 11 17 21 25 27 28 28 28 27 26 25 24 23 24 24 24 24 23 23 23 24 25 25 24 24 24 24 24 24 24 24 24 25 26 27 27
7 7 6 6 7 8 9 9 9 9 9 8 7 7 7 8 8 9 8 8 7 7 6 7 8 8 8 8 8 6 4 3 3 3 3 4 5 6 6 5 6 7 8 8 8 9 9 9 9 9 9 13 18 22 25 26 26 26 25 24 24 23 24 24 25 25 25 24 23 23 24 25 26 25 24 24 23 24 24 24 24 24 25 26 27 27
10 9 10 12 14 16 18 18 18 18 18 14 11 9 8 8 8 8 7 6 6 6 7 8 8 8 7 6 6 5 4 3 3 3 3 4 5 6 5 4 5 6 8 8 8 8 9 9 9 9 8 10 14 18 22 23 24 24 23 23 23 24 25 26 26 26 25 24 23 23 23 25 26 26 25 23 23 23 23 23 24 24 24 25 24 23
14 15 17 18 19 20 21 21 22 22 22 20 17 14 11 9 8 7 7 6 6 7 8 9 9 8 6 6 6 5 4 4 3 3 3 4 5 5 5 5 5 6 8 8 7 8 10 10 10 9 8 8 10 13 18 20 21 22 22 23 24 25 26 26 26 25 24 23 23 22 22 23 25 26 26 24 22 22 23 23 23 23 23 21 19 17
14 16 17 18 19 19 20 20 20 20 20 21 21 19 14 9 8 8 7 7 7 7 8 9 9 8 7 7 6 5 5 4 3 3 3 3 4 5 6 5 6 6 7 7 7 8 10 10 9 8 7 7 7 9 12 15 18 19 21 23 25 26 26 26 25 24 23 23 22 22 22 22 24 26 27 25 23 21 21 23 23 22 20 16 12 9
12 14 15 16 17 18 18 17 17 18 19 20 20 18 13 8 7 7 7 6 7 7 8 9 9 9 8 8 7 6 5 4 3 3 3 4 5 6 6 6 6 5 6 7 7 8 8 8 7 6 6 7 7 6 8 11 14 16 18 22 24 25 25 24 23 22 22 22 21 21 21 21 23 25 27 26 24 22 20 22 22 20 15 11 9 8
9 10 11 11 12 13 12 11 12 13 16 18 18 16 12 8 6 6 7 6 6 7 8 9 9 9 9 8 8 7 5 3 3 3 3 4 5 5 6 6 6 6 5 6 6 7 7 6 6 5 6 7 7 6 6 8 9 11 13 17 19 20 22 22 21 21 21 21 21 21 20 20 21 23 25 26 26 24 21 21 19 16 10 8 7 7
7 7 7 7 7 7 7 7 8 9 11 13 14 13 10 7 5 5 5 6 6 7 8 9 9 9 9 8 7 6 4 3 3 4 4 4 4 5 5 6 6 6 5 5 5 6 7 6 6 6 6 7 7 7 7 8 8 9 9 11 12 14 18 19 19 19 19 19 20 20 20 19 20 22 24 26 26 25 23 21 17 13 8 7 6 7
7 7 6 6 5 5 5 5 6 6 7 8 8 8 7 6 5 5 6 6 7 7 8 9 9 9 9 8 7 6 5 4 4 5 4 4 4 4 4 5 6 6 5 5 5 6 6 6 6 6 7 7 7 7 7 8 8 8 9 9 10 11 15 16 16 15 15 17 18 18 18 18 18 20 22 24 25 25 24 22 17 11 7 6 6 6
7 6 6 6 5 5 5 5 5 5 5 5 5 5 5 5 6 7 6 6 7 7 8 9 9 9 9 8 8 7 6 5 5 6 6 5 4 4 4 6 7 7 7 6 6 6 6 6 7 7 7 7 7 6 7 7 8 8 8 8 9 10 12 12 12 12 12 14 14 15 15 15 16 18 20 22 24 24 23 22 18 12 7 5 5 6
7 6 6 5 5 4 5 4 4 5 5 5 5 5 4 5 6 6 7 6 7 7 7 8 8 9 9 9 8 8 7 6 6 8 8 6 5 5 6 7 7 8 8 7 7 7 6 7 7 7 7 7 7 6 6 7 8 8 7 7 7 8 9 9 9 9 10 11 10 10 10 11 12 14 17 19 20 21 21 21 19 15 12 8 6 6
7 7 6 5 5 5 5 5 5 5 6 5 5 4 4 5 5 6 6 7 7 7 7 7 8 8 9 9 9 9 9 7 8 9 9 7 6 6 6 7 7 7 7 7 7 6 6 7 8 8 8 8 7 7 6 6 6 6 6 7 7 7 7 7 7 8 9 9 9 8 7 7 7 9 12 15 17 19 20 19 18 17 15 13 10 8
6 6 5 5 5 5 6 6 6 6 6 5 4 4 4 5 5 6 6 7 7 8 8 8 7 7 8 9 10 10 10 9 10 10 10 8 7 6 6 6 7 7 7 8 8 7 7 7 8 9 9 9 8 7 6 6 6 6 6 7 7 7 7 7 7 7 7 8 8 8 7 7 6 7 9 13 16 18 18 17 16 15 15 15 13 11
6 6 5 5 5 5 6 6 6 6 5 5 4 4 5 5 5 6 6 7 7 8 8 8 8 9 10 9 10 10 11 10 10 11 11 9 7 6 6 6 7 8 7 8 8 8 8 8 8 9 9 8 7 7 7 7 7 7 8 7 7 7 7 7 7 7 6 8 8 8 8 7 7 7 8 13 15 15 14 13 13 13 14 14 14 14
6 6 6 5 4 5 5 6 6 6 5 5 5 6 6 6 6 7 7 7 7 7 7 7 8 9 12 13 13 12 12 12 12 12 12 9 7 6 7 7 8 8 8 8 8 8 8 8 8 8 8 7 8 9 9 8 8 8 8 8 8 7 7 7 7 6 6 7 8 9 9 8 7 7 7 9 9 9 9 8 9 10 11 12 13 14
6 6 6 6 6 5 5 6 6 6 6 6 6 7 7 7 7 7 7 7 7 7 7 7 8 8 10 12 13 14 13 13 13 12 11 9 7 6 7 8 8 9 8 8 8 8 8 8 8 8 8 8 8 8 8 8 8 9 9 9 9 8 7 6 6 6 5 7 8 9 9 8 7 7 7 7 7 7 7 7 8 8 8 8 9 11
6 6 6 7 6 6 6 7 7 7 7 7 8 8 8 7 7 7 7 7 7 7 8 8 8 9 9 10 11 11 12 10 10 10 9 7 6 6 6 7 8 9 9 8 8 8 8 8 8 9 9 8 8 8 8 8 9 9 10 9 8 7 8 7 6 6 6 6 7 7 7 6 6 7 7 7 7 7 7 7 7 7 7 6 6 7
7 6 6 6 7 7 7 7 7 7 7 7 7 7 7 6 6 6 6 7 7 7 7 8 8 8 9 8 8 8 9 9 9 9 7 8 8 8 7 7 8 8 8 8 8 8 8 9 9 9 9 9 9 10 10 10 11 12 12 10 9 9 9 9 8 7 6 6 6 6 6 7 7 7 7 7 7 7 7 7 7 7 7 5 4 4
7 7 7 6 6 6 7 7 7 7 7 6 6 6 6 6 6 6 7 7 7 7 7 7 7 8 9 8 8 8 7 7 8 8 8 9 9 9 8 8 8 8 8 8 8 9 9 9 9 9 9 9 9 9 9 10 11 11 11 10 10 10 10 9 7 6 5 6 6 6 7 7 7 6 7 7 6 6 6 6 7 8 7 5 4 4
7 7 7 7 7 7 7 7 7 6 6 5 6 6 6 5 5 6 8 8 8 8 8 8 8 9 9 9 9 8 7 6 7 7 8 8 9 9 9 9 8 8 7 8 8 9 9 9 9 9 9 9 9 9 10 10 11 11 10 10 9 8 6 6 6 5 5 6 6 6 6 6 6 6 6 6 6 5 6 6 7 8 7 5 5 4
7 7 7 6 6 6 6 6 5 5 5 6 6 6 5 5 5 6 7 7 8 8 8 8 8 8 9 9 9 9 8 7 6 6 7 8 9 9 9 9 9 8 8 7 7 8 8 8 8 8 8 8 8 9 9 10 10 10 10 9 9 8 6 6 7 7 7 7 6 6 5 5 5 6 6 6 5 5 5 5 5 5 6 5 5 5
7 7 7 6 6 6 6 6 6 6 6 6 7 6 5 5 5 6 6 7 7 8 8 7 7 7 7 8 8 8 8 8 7 6 6 7 9 10 9 8 8 8 8 8 7 7 7 8 8 8 8 7 8 9 9 10 10 10 10 10 9 8 8 7 7 8 8 7 7 6 5 5 5 6 6 6 6 5 5 5 5 5 5 4 4 4
6 6 6 6 6 6 7 7 6 6 6 7 7 6 5 4 4 5 6 7 7 8 8 7 6 6 7 8 9 9 9 9 8 8 6 6 6 6 6 7 7 7 7 8 8 8 7 7 8 8 8 8 8 9 9 9 9 9 9 9 9 8 7 7 7 7 7 7 7 6 6 6 6 6 6 6 6 6 6 5 5 5 5 5 4 4
6 6 6 6 6 6 6 6 6 6 7 7 7 6 5 5 5 5 6 6 7 7 8 7 7 7 8 8 8 8 9 10 10 9 8 7 6 6 6 6 7 8 7 7 7 8 8 8 8 9 8 8 9 9 8 8 8 8 8 8 8 7 6 6 6 6 6 6 6 6 6 5 5 6 6 6 6 6 6 5 5 5 5 4 4 4
7 7 7 7 7 7 7 7 6 6 7 7 7 6 6 6 6 7 6 6 7 7 8 8 8 8 9 9 8 8 9 10 10 10 10 9 8 7 7 7 7 7 7 7 8 8 8 8 9 9 8 8 8 8 9 8 8 8 7 7 7 7 7 6 6 6 5 5 6 6 5 5 5 6 6 6 6 6 6 6 5 4 3 3 3 4
6 7 7 7 7 7 7 7 7 7 7 7 7 7 6 7 8 8 7 6 6 7 7 8 8 9 9 9 9 9 9 10 9 9 9 8 8 7 8 8 8 7 7 7 6 6 6 7 8 9 8 8 8 8 9 8 7 7 6 6 6 6 6 6 6 5 5 6 7 7 6 5 5 5 5 6 6 6 6 6 5 4 3 3 3 4
7 7 7 7 7 7 7 7 7 7 7 8 8 7 7 6 6 6 5 6 6 6 6 7 8 8 9 9 9 9 9 9 9 9 9 8 7 8 8 9 9 8 8 7 6 5 5 5 6 7 8 9 8 7 7 7 6 6 6 5 5 5 6 6 5 5 5 6 7 7 6 5 5 4 4 5 6 6 6 5 5 4 3 3 3 4
7 7 7 7 7 7 7 7 7 7 8 8 8 8 7 7 6 5 5 5 6 6 6 7 7 8 9 10 10 10 10 9 9 9 9 7 7 8 9 9 9 9 9 8 7 7 6 6 5 5 6 8 8 7 5 5 5 5 6 5 5 5 5 5 5 6 6 7 7 7 7 6 5 5 4 4 5 5 5 5 5 5 4 3 3 4
Wind_Direction
308 312 313 319 320 319 315 320 324 326 325 326 327 327 327 328 326 322 321 322 322 322 322 321 320 320 319 321 322 323 324 325 326 326 327 327 327 326 326 325 325 324 324 323 323 322 322 321 321 321 321 322 323 324 326 327 326 324 321 317 313 308 305 302 300 299 298 297 295 293 291 292 293 296 297 297 297 297 297 298 299 300 300 298 294 288
311 312 313 321 324 321 314 320 324 325 324 324 324 324 326 325 323 320 319 319 319 320 320 319 318 317 317 316 319 322 323 324 325 325 326 325 325 325 325 325 324 324 324 324 324 323 322 322 321 320 320 321 322 324 326 328 329 328 327 324 320 316 312 307 303 299 297 295 293 291 290 290 291 293 293 294 294 294 295 295 295 296 297 297 294 290
321 320 320 323 324 322 316 320 321 320 318 317 317 318 319 318 317 316 316 316 315 314 313 313 313 313 312 312 316 319 321 322 323 324 324 324 324 324 324 324 324 324 324 324 324 324 323 322 321 320 320 320 322 323 325 327 327 328 328 327 326 324 321 316 311 306 300 296 292 289 287 287 288 289 289 290 291 292 293 293 293 294 294 294 293 291
325 324 325 326 323 318 312 315 316 315 313 311 311 312 312 312 311 309 309 308 308 308 306 306 307 308 308 308 312 316 318 320 321 322 322 322 322 322 322 323 323 324 324 324 324 323 323 322 321 321 321 321 322 324 324 324 324 324 325 326 327 327 327 324 320 315 309 303 296 290 286 285 284 285 286 287 288 289 290 291 291 291 291 291 291 290
326 324 325 327 323 316 311 311 313 313 312 311 311 311 311 308 305 304 303 303 303 304 304 304 305 305 305 306 309 313 316 318 319 319 319 319 319 320 320 321 322 323 323 323 323 323 322 321 321 321 321 322 322 323 322 321 321 320 320 322 323 324 326 326 325 323 320 315 307 300 293 288 285 284 284 284 285 286 287 289 289 289 289 289 288 288
322 322 325 324 320 315 314 315 316 316 315 314 312 310 308 304 302 302 303 304 305 304 304 304 304 303 302 302 307 311 314 316 317 317 316 316 316 317 318 320 321 322 322 322 321 321 321 320 320 320 320 320 320 320 319 318 317 316 316 317 318 319 321 322 324 324 324 322 318 312 304 297 292 288 284 284 284 284 285 287 287 288 287 287 286 286
318 319 324 318 313 309 309 311 314 316 316 315 313 310 307 303 302 300 299 302 303 304 304 303 302 300 300 300 305 310 313 314 314 314 313 313 314 315 316 318 319 319 320 319 319 319 319 319 318 318 318 318 317 316 315 314 313 312 312 312 313 314 316 317 319 321 323 325 323 320 316 310 304 297 290 287 284 283 284 285 286 287 287 285 285 284
314 315 318 312 307 304 302 301 303 306 309 311 312 313 312 309 306 301 297 298 300 303 306 306 304 301 300 301 306 309 312 311 311 311 311 311 312 313 315 316 316 317 317 317 317 316 316 316 316 315 315 314 314 313 311 311 310 309 309 309 309 310 311 313 314 316 319 321 322 323 322 319 315 309 302 294 288 285 284 285 286 287 287 286 284 283
306 306 305 301 300 301 301 297 294 294 298 303 307 310 313 313 311 308 306 305 305 306 307 308 307 306 303 305 307 309 308 308 307 308 309 309 311 312 313 314 314 314 314 314 314 314 314 313 313 313 312 312 311 311 310 309 309 308 307 306 306 306 307 308 310 311 313 316 318 320 321 321 320 317 311 304 298 292 288 287 287 287 287 286 285 283
292 293 294 289 286 287 295 298 296 293 289 292 293 297 303 310 313 315 316 314 312 310 307 308 308 309 308 308 308 307 306 305 304 305 306 307 309 310 311 311 311 312 311 311 311 311 311 310 310 310 310 310 310 310 310 309 308 307 306 305 305 304 304 305 306 307 308 311 313 315 317 319 319 318 316 312 307 301 295 291 288 287 287 286 285 283
287 288 289 287 283 279 281 289 294 295 295 294 290 286 288 303 313 318 318 317 317 316 312 310 309 310 311 310 309 306 304 303 303 303 304 305 307 308 309 308 308 308 309 309 309 308 308 308 308 308 308 308 309 309 309 309 308 307 306 305 304 303 303 303 303 304 305 306 308 310 312 314 315 316 316 315 312 307 302 296 291 288 286 285 284 282
287 289 289 290 291 290 288 291 294 299 307 311 312 311 310 314 317 316 315 315 317 317 315 313 310 308 306 307 307 305 302 299 300 301 302 303 305 306 307 307 307 307 308 307 306 306 305 305 305 305 306 307 308 308 308 308 307 306 305 304 304 303 302 302 302 302 302 303 304 305 307 309 311 312 313 314 312 310 306 300 295 289 285 284 282 281
288 291 294 298 301 303 304 306 310 314 319 322 322 321 321 322 320 314 308 309 312 314 314 312 310 307 301 298 298 299 299 296 295 296 299 301 302 303 304 304 304 305 306 304 303 302 303 303 303 304 305 305 306 306 306 306 305 305 304 304 303 303 302 302 301 300 300 300 301 302 303 305 306 308 309 310 311 310 308 304 299 293 287 284 282 280
299 302 304 306 309 311 312 314 315 317 320 322 319 316 313 315 315 312 307 306 308 310 310 307 306 305 304 297 292 289 292 294 295 297 297 298 299 300 300 300 301 302 303 300 298 297 298 300 301 302 303 303 303 303 303 303 303 303 303 303 303 303 302 302 301 300 299 298 298 299 299 301 302 304 305 306 307 307 307 305 302 298 292 287 282 279
310 311 311 310 311 313 314 314 314 314 315 316 313 311 309 309 310 311 310 309 309 310 308 304 302 301 300 298 295 291 291 292 297 300 300 298 298 298 298 298 299 300 300 297 295 294 296 297 297 297 299 299 299 299 300 300 301 302 302 303 302 302 302 301 300 299 298 297 296 296 296 297 298 300 301 302 303 304 304 305 304 302 298 291 285 279
312 312 309 309 308 309 312 313 313 312 312 312 310 309 310 309 310 310 309 308 308 309 308 307 305 303 298 293 293 295 296 295 298 301 302 300 300 300 298 298 299 299 298 294 293 293 294 293 293 294 295 295 297 298 298 300 301 301 302 302 302 302 302 301 300 299 297 296 294 294 293 294 295 296 297 298 299 300 301 303 303 303 301 295 287 280
307 306 304 304 305 306 307 308 307 306 307 307 306 305 305 306 307 307 304 303 304 305 304 305 305 305 304 302 299 297 301 302 303 303 302 299 300 300 296 296 296 297 295 292 290 291 292 292 293 294 293 294 296 298 299 300 300 301 301 302 302 302 302 301 300 299 297 296 294 292 291 291 292 293 294 295 295 296 298 300 302 303 302 298 290 281
299 299 300 299 300 302 305 304 303 302 303 304 305 305 304 303 302 302 299 298 298 298 299 298 298 299 302 302 302 305 315 309 307 304 301 296 296 297 296 293 292 292 292 289 288 289 290 290 291 292 292 295 296 298 299 299 300 301 301 302 302 303 303 302 301 300 298 296 293 292 290 289 289 290 290 291 292 293 294 297 299 301 302 300 294 284
295 296 296 296 296 297 299 300 301 303 304 306 308 308 305 302 299 296 294 293 293 293 295 296 294 292 291 290 294 303 320 314 308 303 297 294 293 295 297 294 292 290 290 288 289 290 291 289 289 290 292 295 296 297 298 299 299 300 301 302 303 303 304 303 302 300 298 296 293 291 289 288 287 287 287 288 289 290 291 294 296 298 300 298 294 286
291 290 289 292 294 294 293 293 296 300 303 304 303 302 299 298 296 293 293 294 294 293 294 293 292 289 284 284 290 303 322 317 307 298 291 288 289 292 295 294 293 292 291 290 291 292 292 289 289 291 293 295 296 297 298 298 299 300 301 302 303 304 304 303 302 301 299 297 295 292 290 288 286 285 285 285 286 287 288 291 293 295 296 297 294 288
287 285 280 283 287 290 290 292 295 298 300 300 298 294 292 294 294 294 297 301 301 300 299 294 290 287 286 288 296 307 317 310 301 293 286 286 288 292 296 294 292 291 291 291 292 293 293 290 289 290 292 295 296 297 298 299 299 300 300 301 302 304 305 305 305 305 304 303 300 297 294 290 287 284 283 283 283 284 286 287 289 291 293 293 292 289
280 280 278 275 276 280 285 290 295 297 297 297 295 294 295 300 302 303 305 306 305 301 298 291 288 287 291 294 298 300 300 292 288 286 288 289 292 293 296 295 292 291 291 292 294 296 296 292 289 289 292 295 297 298 298 299 299 299 300 301 302 304 306 307 309 310 311 310 308 305 302 296 291 286 282 281 280 281 283 285 286 288 290 291 291 289
267 271 273 271 271 273 281 286 290 293 295 295 295 296 300 303 304 304 305 302 297 293 289 286 286 288 291 291 291 290 283 273 272 276 283 287 290 293 296 296 294 292 290 293 297 299 299 296 294 293 294 296 297 298 298 298 298 299 299 301 302 305 307 309 311 313 314 314 314 313 310 304 296 289 283 279 278 278 280 282 284 286 288 290 290 288
263 266 269 269 270 273 278 283 288 293 296 296 295 294 294 292 292 292 291 288 285 283 283 287 290 291 289 288 288 286 278 264 257 262 275 283 287 291 296 297 295 292 291 294 298 300 300 297 295 294 295 296 296 296 297 297 297 298 299 301 303 305 308 311 312 313 313 315 316 317 316 312 305 296 287 279 276 275 276 279 281 284 287 289 289 286
269 270 274 282 290 296 300 302 304 306 308 307 305 301 297 294 291 289 285 282 281 283 288 291 292 290 289 290 289 288 284 271 264 267 277 283 285 288 291 294 295 294 294 297 299 299 298 296 295 294 295 294 295 295 295 296 297 298 300 302 304 306 309 311 312 312 312 313 315 318 319 318 313 305 294 284 276 273 273 275 279 283 286 289 288 285
294 300 306 308 310 310 311 311 310 311 311 310 308 306 304 301 298 294 290 290 293 296 296 292 288 287 287 288 288 288 288 280 270 266 273 280 284 287 291 295 297 297 298 298 298 296 296 295 295 296 297 294 293 294 295 296 298 299 301 303 305 307 309 310 310 310 310 311 313 316 320 320 318 313 304 292 280 272 269 271 275 279 285 288 287 283
313 316 317 316 315 314 313 312 311 310 310 309 307 306 306 306 303 299 298 304 307 305 298 294 291 289 288 287 286 287 290 288 279 271 271 281 286 290 296 301 302 300 298 296 294 294 295 296 298 299 297 293 291 292 294 297 299 301 303 305 306 307 307 307 307 307 308 309 312 315 318 320 320 318 313 303 289 275 266 267 270 274 281 286 288 284
323 321 318 316 315 313 312 312 311 310 309 307 306 306 306 306 303 301 303 309 308 303 295 295 296 297 296 294 293 293 294 293 290 289 296 295 293 294 300 304 302 298 297 296 295 295 296 296 296 295 292 290 289 292 296 299 302 303 304 304 304 304 303 303 304 304 306 307 310 313 316 319 320 320 318 311 300 285 270 265 265 269 275 280 285 288
320 316 313 312 312 311 312 311 310 308 305 304 305 305 307 304 300 298 300 304 303 299 297 299 301 302 302 301 299 297 294 291 297 313 332 312 298 294 299 301 300 299 301 301 300 298 295 293 291 290 289 292 295 297 300 302 303 303 302 301 301 300 300 300 301 302 304 306 308 311 314 317 318 319 318 315 309 297 280 268 264 263 266 270 277 284
313 311 309 309 309 310 310 307 304 301 300 301 302 303 304 300 293 290 294 300 303 304 304 305 305 304 304 303 301 298 292 294 313 332 339 310 295 291 298 300 302 306 311 309 305 300 295 292 291 291 294 299 301 302 300 300 298 297 296 297 297 296 296 297 299 301 303 305 307 309 311 314 316 317 317 317 314 309 297 280 269 260 252 257 268 278
310 309 307 306 306 305 302 297 294 294 296 298 299 299 298 294 290 293 303 312 313 311 307 305 303 302 302 302 300 298 296 303 316 323 319 296 288 290 301 303 305 308 311 307 303 300 299 298 298 298 301 303 302 299 295 293 292 291 291 292 292 292 293 295 298 301 303 305 306 307 309 312 315 316 316 317 316 314 310 297 282 264 244 249 259 269
312 311 308 306 303 299 294 292 290 291 291 293 292 293 295 302 312 321 324 322 316 309 302 299 297 295 295 293 292 292 295 301 308 310 307 294 288 293 305 306 305 304 304 296 291 292 296 299 302 304 305 303 299 295 291 289 287 287 286 287 288 289 292 295 298 301 304 304 305 305 307 310 313 315 315 314 315 315 314 307 297 278 243 242 249 258
312 309 306 303 299 296 293 292 291 291 290 290 292 298 309 322 327 326 320 313 306 299 294 293 292 292 291 288 287 286 289 293 304 312 316 308 301 301 306 306 304 302 301 293 286 283 284 290 297 301 302 299 296 293 290 288 286 284 283 285 286 289 292 296 299 302 303 303 302 302 303 308 311 313 313 312 312 313 313 311 307 297 268 248 243 249
310 307 303 300 298 296 295 295 295 295 295 299 307 317 327 326 321 314 307 301 295 291 287 287 289 291 293 292 290 289 289 294 309 318 323 314 306 302 304 303 302 301 300 295 290 286 281 285 290 295 297 296 294 291 289 287 285 283 281 281 283 287 291 296 299 300 300 299 298 296 297 302 307 310 312 310 310 311 312 312 310 304 293 276 257 247
308 307 304 303 302 304 305 305 304 304 304 309 315 319 318 311 306 302 299 295 291 287 283 283 285 290 295 297 297 296 296 300 310 316 315 309 303 300 300 298 298 298 296 293 291 289 285 286 287 290 292 294 294 291 288 284 283 282 281 279 280 283 287 292 295 296 297 295 294 292 292 295 302 307 309 308 308 309 310 311 310 307 300 290 278 262
308 308 307 307 309 311 312 311 309 307 306 305 304 303 301 298 296 294 292 289 288 287 286 286 288 291 295 297 297 297 298 301 304 305 303 299 296 294 292 291 292 293 291 289 288 287 287 287 288 288 289 291 292 293 292 290 288 287 286 284 283 283 285 287 289 290 291 291 291 292 292 295 299 302 303 302 303 305 307 310 312 311 307 299 290 277
309 309 310 311 310 310 309 307 305 303 300 298 296 295 294 292 290 288 285 283 283 285 288 292 293 293 292 291 290 290 291 294 294 294 292 289 287 286 284 285 287 287 284 285 286 287 287 288 288 288 287 287 289 294 298 300 298 295 291 290 290 289 289 288 286 284 284 285 288 291 294 296 298 299 298 299 299 300 304 309 313 315 315 311 302 290
310 309 310 309 308 306 304 303 301 300 298 298 297 296 293 288 286 284 282 282 284 287 292 294 293 289 286 284 282 280 281 281 282 283 283 281 279 277 278 281 282 281 278 279 282 284 286 286 288 288 288 287 288 290 294 297 297 295 293 293 291 289 288 287 285 282 281 284 288 292 295 298 299 300 299 299 298 299 302 309 315 319 320 317 310 300
307 307 308 308 307 305 304 302 301 300 299 297 296 295 293 289 286 284 285 288 291 293 292 290 288 284 282 280 278 278 279 279 279 279 279 277 273 271 272 276 278 279 278 277 277 278 279 280 282 284 286 288 290 290 291 291 291 291 293 294 293 289 285 285 286 286 286 288 290 293 296 298 300 303 305 306 308 310 314 318 321 323 323 321 316 307
304 304 304 306 306 305 303 301 300 299 298 295 294 293 294 293 291 291 291 294 294 292 289 285 283 281 280 279 279 279 280 280 279 278 277 273 269 265 265 270 274 278 280 278 276 274 273 274 276 277 280 283 286 288 290 289 289 290 293 295 294 293 294 295 294 291 288 286 286 288 292 295 299 303 307 309 313 316 319 320 320 319 318 315 314 312
303 303 303 304 304 302 299 297 295 293 291 291 292 293 294 295 297 298 298 297 296 294 291 289 287 285 283 280 278 277 277 276 275 275 274 271 268 266 265 267 271 275 278 278 277 274 272 273 275 276 277 279 282 284 285 286 288 290 293 291 290 290 294 294 292 288 285 283 283 285 290 295 299 302 303 304 306 307 309 309 309 308 306 302 299 302
302 302 302 302 300 298 295 291 289 288 288 289 291 293 295 298 300 301 301 300 299 297 296 296 295 294 293 291 288 284 280 277 276 275 274 271 268 266 264 265 267 271 275 277 276 275 273 273 274 276 278 281 283 285 286 287 289 290 290 288 288 290 291 290 288 286 286 287 288 291 294 296 297 298 298 297 297 296 296 295 296 296 297 294 291 290
299 298 296 295 292 290 288 289 290 290 292 292 293 294 296 296 296 297 298 298 298 298 298 297 295 296 297 299 300 300 296 288 280 277 275 272 269 266 263 263 264 267 271 275 276 276 275 274 274 276 278 281 282 283 285 288 290 291 289 288 289 291 292 292 293 294 292 291 291 292 292 293 294 294 295 293 291 290 289 289 289 289 289 288 288 287
293 291 289 288 286 285 286 289 291 294 295 296 296 296 295 291 289 290 292 293 294 294 295 294 293 293 294 297 301 304 305 301 292 283 275 272 269 267 266 265 265 266 266 270 274 277 280 279 278 278 279 280 279 280 281 285 288 290 290 290 288 285 282 289 294 297 296 293 291 289 289 294 298 299 299 296 292 289 287 288 288 287 285 283 284 286
285 285 285 286 288 290 292 293 295 297 298 297 296 295 292 287 286 287 288 290 291 292 292 293 294 295 296 299 303 305 306 307 305 299 287 278 276 275 274 272 272 271 269 267 268 272 276 280 282 283 284 280 276 276 278 282 285 288 291 292 290 285 279 281 285 288 289 291 293 296 301 306 308 307 304 300 297 294 292 292 291 290 288 285 285 286
281 284 286 288 290 292 293 295 296 297 295 294 293 292 288 286 284 285 285 287 289 291 291 293 294 296 297 301 304 307 308 308 308 308 306 296 289 283 278 275 273 272 271 269 267 266 267 273 279 284 286 282 278 275 274 278 283 287 291 295 295 293 286 282 282 284 286 292 296 301 307 310 308 304 300 299 298 297 294 291 289 287 287 287 287 288
283 286 288 290 291 292 292 294 294 294 293 292 291 291 290 288 288 287 286 286 288 291 294 295 295 295 295 298 301 304 305 306 307 308 309 307 304 300 295 288 282 277 273 271 269 268 267 269 272 276 280 281 281 280 279 279 281 285 290 296 299 299 295 291 289 289 290 292 293 295 299 302 301 298 296 296 296 296 295 291 286 282 280 284 288 291
285 288 290 291 292 293 293 293 293 291 290 290 291 292 292 291 292 292 291 292 293 295 298 298 298 296 295 295 296 298 299 301 303 305 307 307 307 308 308 305 299 292 284 280 277 276 273 268 265 264 265 269 274 278 280 280 281 284 289 297 301 302 300 297 296 295 294 291 289 288 290 292 293 293 295 296 296 295 295 294 290 284 275 278 284 289
287 288 289 290 291 291 291 291 290 289 288 289 290 292 293 292 293 294 292 293 294 294 295 296 296 296 296 296 296 297 297 297 298 299 302 304 308 311 312 311 308 304 299 294 291 286 279 269 258 250 244 247 255 265 273 276 280 283 289 297 302 304 304 303 301 300 298 294 291 289 288 287 285 285 289 291 291 292 294 295 294 290 278 272 274 279
287 286 286 287 287 287 288 288 288 288 287 288 289 291 292 292 291 289 287 288 288 288 289 292 294 296 296 296 297 298 298 297 296 296 298 303 309 312 313 311 310 309 309 308 307 304 298 287 269 252 240 238 241 249 263 271 278 284 291 297 302 307 308 308 306 304 301 298 296 294 293 290 286 281 280 282 285 288 291 294 296 295 287 276 272 274
287 285 284 284 284 284 284 285 285 286 285 286 287 289 291 293 292 290 286 286 286 287 289 292 293 294 294 295 296 296 295 294 294 296 299 306 311 312 310 309 310 312 313 313 312 311 309 306 299 284 263 253 249 249 254 266 279 290 297 300 303 307 310 310 309 306 303 300 298 297 297 294 291 286 281 283 286 289 292 295 298 299 294 291 290 290